Погода в Минусинске

Погода в Минусинске : погода сейчас, прогноз погоды и архив. Всё, что Вы хотите узнать о погоде в Минусинске!

Поиск расширенной информации на нашем сайте:

Другие новости

Новости СМИ2

Главная страница сайта

Новости сайта

03.07.2017

Напоминаем, что на нашем специализированном сайте Метеоцентр.Азия вы можете получить высокодетализированные автоматические прогнозы погоды по пунктам России, СНГ и мира в авиационном формате (включающие направление и скорость ветра, видимость, явления погоды, количество и форму облачности, нижнюю и верхнюю границу облачности).

Рекомендуем: http://minprom.ua/ условия ес для украины: вступление украины в сроки и условия.

Погода в Минусинске - сегодня

Время (UTC), дата Ветер
(°,м/с) 
Видим.   Явления Облачность Т
(°С)
Тd
(°С)
f(%) Тe
(°С)
Pmin
(гПа)
dP
(гПа)
Po
(мм)
O2
(г/м3)
Тmin Tmax R s Состояние
почвы
15 17.09.17 020 (С) н/о    3/0 верхняя 
[Ci fib]
+10 +7.9 87 +11  1018.6  0.1  741  287           
18 17.09.17 040 (СВ) н/о    ясно 
+8.6 +7.3 92 +10  1017  -1.6  740  288           
21 17.09.17 тихо ()   н/о  туман поземный  10/0 верхняя 
[Ci sp]
+4.6 +4.1 97 +5  1015.4  -2  738  292           
00 18.09.17 тихо ()   20000 м  местами туман поземный  8/3 1000 м верхняя 
[Sc|Ci fib]
+3.2 +2.7 97 +3  1014.3  -1.2  737  293  +3.1        влажная 
03 18.09.17 030 (СВ) 20000 м    9/6 1000 м средняя, верхняя 
[Sc|Ac trans|Ci fib]
+13.6 +9.3 75 +16  1012.3  -0.8  737  281           
06 18.09.17 150 (ЮВ) 20000 м    8/4 1000 м средняя, верхняя 
[Sc|Ac trans|Ci fib]
+21.8 +10.8 50 +24  1009.3  -2.1  735  272           
09 18.09.17 250 (З) 20000 м    10/6 1000 м средняя, верхняя 
[Cu Sc|Ac trans|Cs]
+24 +9.6 40 +25  1007.5  -1.6  734  270           
12 18.09.17 330 (СЗ) 1{13}  20000 м  в посл. час гроза{ливн. осадки}  10/6 600 м кучево-дожд., верхняя 
[Cb cap|Ci fib]
+14.7 +13.4 92 +23  1010.1  1.7  735  278    +24.6     
15 18.09.17 030 (СВ) н/о  слаб. ливневой дождь{гроза}  10/10 600 м кучево-дожд. 
[Cb cap]
+14 +13.6 97 +22  1011.2  1.1  736  279           
18 18.09.17 030 (СВ) н/о  слаб. ливневой дождь{гроза}  10/10 600 м кучево-дожд. 
[Cb cap]
+13.6 +13.1 97 +21  1009.6  -1.7  735  279           
21 18.09.17 080 (В) н/о  {ливн. осадки}  10/5 600 м средняя 
[Sc|As op]
+13.1 +12.5 96 +19  1006.9  -2.7  733  279           
00 19.09.17 230 (ЮЗ) 20000 м  слаб. ливневой дождь  10/10 600 м кучево-дожд. 
[Cb cap]
+13 +12.3 96 +18  1007.2  0.3  733  279  +12      влажная 
03 19.09.17 230 (ЮЗ) 6{10}  20000 м  {ливн. осадки}  10/8 1000 м верхняя 
[Sc diur, vesp|Cs]
+14.6 +10.6 77 +16  1007.9  0.8  734  279           
06 19.09.17 270 (З) 5{10}  20000 м  {ливн. осадки}  10/8 1000 м верхняя 
[Sc diur, vesp|Ci fib]
+18 +6 45 +18  1008.4  0.8  734  277           
09 19.09.17 270 (З) 2{10}  20000 м    10/6 1000 м верхняя 
[Sc diur, vesp|Ci fib]
+17.5 +7.9 53 +18  1008.5  0.1  734  277           
12 19.09.17 230 (ЮЗ) 20000 м    10/8 600 м кучево-дожд., верхняя 
[Cb cap|Ci fib]
+14.4 +9.1 70 +15  1009.5  0.7  735  280    +19.1       
15 19.09.17 260 (З) н/о    10/6 1000 м средняя 
[Sc diur, vesp|Ac As]
+11.8 +6.3 69 +11  1010.9  736  283           
18 19.09.17 240 (ЮЗ) н/о    10/4 1000 м верхняя 
[Sc diur, vesp|Ci sp]
+9.8 +6.4 79 +9  1012.2  736  285           
21 19.09.17 230 (ЮЗ) н/о  слаб. ливневой дождь  10/10 600 м кучево-дожд. 
[Cb cap]
+9.4 +6.4 82 +8  1012.4  0.2  736  286           
00 20.09.17 250 (З) 20000 м  в посл. час ливневой дождь  10/10 600 м кучево-дожд. 
[Cb cap]
+8.8 +7.5 92 +8  1013.5  737  286  +8.5      влажная 
03 20.09.17 260 (З) 10 км  слаб. ливневой дождь  10/10 600 м кучево-дожд. 
[Cb cap]
+8.9 +8.3 96 +9  1016  2.4  739  287  +8         
06 20.09.17 250 (З) 10 км  слаб. ливневой дождь  10/10 600 м кучево-дожд. 
[Cb cap]
+7.9 +6.8 93 +7  1017.8  1.7  740  289           
09 20.09.17 160 (Ю) 20000 м  в посл. час ливневой дождь  10/8 600 м кучево-дожд., средняя, верхняя 
[Cb cap|Ac As|Ci fib]
+9.1 +7.6 90 +10  1019  1.2  741  288           
12 20.09.17 050 (СВ) 20000 м  {ливн. осадки}  10/8 600 м кучево-дожд., средняя, верхняя 
[Cb cap|Ac trans|Ci fib]
+10.5 +8.5 87 +11  1019.5  0.8  742  286    +11.3     
15 20.09.17 280 (З) н/о    8/3 1000 м средняя, верхняя 
[Sc|Ac trans|Ci fib]
+7.4 +4.2 80 +7  1021.7  1.6  743  291           
Время (UTC), дата Ветер
(°,м/с) 
Видим.   Явления Облачность Т
(°С)
Тd
(°С)
f(%) Тe
(°С)
Pmin
(гПа)
dP
(гПа)
Po
(мм)
O2
(г/м3)
Тmin Tmax R s Состояние
почвы

Для получения пояснительной информации подведите курсор к названию столбца.

ПОГОДА в Минусинске - архив

Всё, что Вы хотите узнать о погоде в Минусинске - удобно и подробно!

Выберите нужную дату (начиная с 1 января 2015* года) и нажмите кнопку "Найти".
Будут отображены архивные сводки погоды по пункту Минусинск, начиная с указанной даты.


Отображать данные в формате CSV (для использования в таблицах Excel)


Внимание! Наш архив погоды предназначен исключительно для личного некоммерческого использования в познавательных целях. Если Вам необходимы официальные справки о состоянии погоды (для производственных, юридических, коммерческих и т.п. целей), обращайтесь в органы Росгидромета.

*Примечание: данная дата относится к архиву по метеостанциям СССР (Россия, СНГ, Балтия).
Архив по метеостанциям Зарубежной Европы и Азии (кроме Китая) хранится 10 дней, по другим регионам земного шара (Китай, Африка, Америка, Австралия, Океания) - 1 день.

Минусинск - район местоположения метеостанции


Название, широта, долгота, высота метеостанции:
Минусинск 53.7°ш. 91.7°д. 254 м над ур. моря [Российская Федерация]

Дополнительная информация

В oтличие oт бoльшинства пoгoдных сайтoв мы публикуем пoдрoбную метеoинфoрмацию в детальнoм прoфессиoнальнoм фoрмате.

Характеристики температуры и влажнoсти вoздуха измеряются на высoте 2 м в тени вдали oт зданий и деревьев.
Скoрoсть ветра измеряется на высoте 10 м (на урoвне рoста челoвека скoрoсть ветра ниже в 1.5-2 раза). Если метеoстанция нахoдится в гoрoде или в лесу, тo скoрoсть ветра занижена на 2-4 м/с пo сравнению с oткрытым местoм. Скoрoсть ветра над акватoриями крупных рек и oзёр, а также на вершинах хoлмoв на 2-5 м/с выше, чем в oбычных услoвиях.
Атмoсфернoе давление в разных тoчках местнoсти мoжет значительнo oтличаться oт давления на метеoстанции, в зависимoсти oт услoвий рельефа (при пoдъёме на 10 м давление пoнижается примернo на 1 мм рт.ст.).